OneWeb SL0046

operational
NORAD ID: 45447 Int'l Des: 2020-020 Owner: ONEWEB Country: UK Constellation: oneweb
LEOCIRCULARPOLARONEWEB_TYPE

About OneWeb SL0046

Description loading...

Live Position

Loading 3D Globe...

Upcoming Passes

Altitude History

Altitude vs Time

uPlot chart will show altitude changes over time

Two-Line Element Set

1 45447U 20020Z 26102.30088246 -.00000460 00000-0 -13326-2 0 9999
2 45447 87.8928 34.1624 0001704 85.2205 274.9118 13.11416865293970
Epoch: Apr 12, 2026 • Age: 12 hours

Current Status

Altitude 1242.9 km
Velocity 7.23 km/s
Sub-Earth Point -62.46°S, 85.48°E
Launch Date Mar 21, 2020
Age 6 years
Type internet

Technical Details

Classification Payload
Mass 148.00 kg
Dry Mass 140.00 kg
Total Mass 148.00 kg
Length 1.30 m
Diameter 1.00 m
Span 5.00 m
Shape Trapezoid+2 pan
Manufacturer ONEWUS
Bus Type ARROW
Phase Status In Orbit
Owner/State ONEWEB/UK

Large Constellations

Loading constellations...